| time (UTC) | temp C | wind direction | speed KPH | gust KPH | rain 1hr cm | rain 24hr cm | rain mn cm | humidity % | barometer mb |
| 20260510164404 | 26 | 300 | 6.4 | 11.3 | 0.00 | 0.00 | 0.00 | 57 | 1017.0 |
| 20260510163904 | 26 | 334 | 6.4 | 9.7 | 0.00 | 0.00 | 0.00 | 62 | 1017.0 |
| 20260510163404 | 25 | 342 | 6.4 | 11.3 | 0.00 | 0.00 | 0.00 | 60 | 1017.0 |
| 20260510162904 | 25 | 285 | 4.8 | 9.7 | 0.00 | 0.00 | 0.00 | 60 | 1017.0 |
| 20260510162404 | 25 | 341 | 4.8 | 11.3 | 0.00 | 0.00 | 0.00 | 61 | 1017.0 |
| 20260510161904 | 25 | 275 | 3.2 | 14.5 | 0.00 | 0.00 | 0.00 | 61 | 1017.0 |
| 20260510161405 | 25 | 345 | 8.0 | 16.1 | 0.00 | 0.00 | 0.00 | 61 | 1016.9 |
| 20260510160905 | 25 | 10 | 8.0 | 14.5 | 0.00 | 0.00 | 0.00 | 63 | 1016.9 |
| 20260510160404 | 25 | 350 | 8.0 | 19.3 | 0.00 | 0.00 | 0.00 | 61 | 1016.9 |
| 20260510155404 | 25 | 307 | 3.2 | 8.0 | 0.00 | 0.00 | 0.00 | 63 | 1017.0 |
| 20260510154904 | 25 | 292 | 4.8 | 8.0 | 0.00 | 0.00 | 0.00 | 64 | 1016.9 |
| 20260510154404 | 24 | 296 | 4.8 | 11.3 | 0.00 | 0.00 | 0.00 | 64 | 1016.9 |
| 20260510153904 | 24 | 304 | 4.8 | 12.9 | 0.00 | 0.00 | 0.00 | 65 | 1016.9 |
| 20260510153404 | 24 | 296 | 4.8 | 11.3 | 0.00 | 0.00 | 0.00 | 65 | 1016.9 |
| 20260510152904 | 23 | 232 | 4.8 | 8.0 | 0.00 | 0.00 | 0.00 | 65 | 1016.9 |
| 20260510152404 | 23 | 275 | 4.8 | 11.3 | 0.00 | 0.00 | 0.00 | 66 | 1016.8 |
| 20260510151904 | 23 | 292 | 3.2 | 4.8 | 0.00 | 0.00 | 0.00 | 69 | 1016.7 |
| 20260510151404 | 23 | 12 | 1.6 | 4.8 | 0.00 | 0.00 | 0.00 | 70 | 1016.7 |
| 20260510150904 | 22 | 303 | 4.8 | 8.0 | 0.00 | 0.00 | 0.00 | 69 | 1016.7 |
| 20260510150404 | 22 | 292 | 4.8 | 8.0 | 0.00 | 0.00 | 0.00 | 69 | 1016.7 |
| 20260510145904 | 22 | 301 | 3.2 | 11.3 | 0.00 | 0.00 | 0.00 | 70 | 1016.7 |
| 20260510145404 | 22 | 283 | 4.8 | 11.3 | 0.00 | 0.00 | 0.00 | 72 | 1016.8 |
| 20260510144904 | 22 | 299 | 6.4 | 12.9 | 0.00 | 0.00 | 0.00 | 71 | 1016.9 |
| 20260510144404 | 22 | 305 | 9.7 | 14.5 | 0.00 | 0.00 | 0.00 | 72 | 1016.9 |
| 20260510143904 | 22 | 330 | 4.8 | 14.5 | 0.00 | 0.00 | 0.00 | 76 | 1016.8 |
| 20260510143404 | 21 | 306 | 8.0 | 12.9 | 0.00 | 0.00 | 0.00 | 75 | 1016.7 |
| 20260510142904 | 21 | 320 | 4.8 | 12.9 | 0.00 | 0.00 | 0.00 | 76 | 1016.7 |
| 20260510142404 | 21 | 325 | 8.0 | 12.9 | 0.00 | 0.00 | 0.00 | 77 | 1016.7 |
| 20260510141904 | 21 | 311 | 3.2 | 9.7 | 0.00 | 0.00 | 0.00 | 78 | 1016.7 |
| 20260510141404 | 21 | 293 | 6.4 | 11.3 | 0.00 | 0.00 | 0.00 | 79 | 1016.6 |
| 20260510140904 | 21 | 285 | 6.4 | 11.3 | 0.00 | 0.00 | 0.00 | 78 | 1016.6 |
| 20260510140405 | 20 | 293 | 8.0 | 14.5 | 0.00 | 0.00 | 0.00 | 79 | 1016.6 |
| 20260510134904 | 20 | 254 | 6.4 | 14.5 | 0.00 | 0.00 | 0.00 | 82 | 1016.6 |
| 20260510134404 | 20 | 300 | 8.0 | 16.1 | 0.00 | 0.00 | 0.00 | 81 | 1016.8 |
| 20260510133404 | 20 | 302 | 8.0 | 16.1 | 0.00 | 0.00 | 0.00 | 82 | 1016.9 |
| 20260510132904 | 20 | 321 | 8.0 | 16.1 | 0.00 | 0.00 | 0.00 | 82 | 1016.9 |
| 20260510131904 | 20 | 275 | 8.0 | 16.1 | 0.00 | 0.00 | 0.00 | 82 | 1016.7 |
| 20260510131404 | 20 | 291 | 8.0 | 16.1 | 0.00 | 0.00 | 0.00 | 82 | 1016.6 |
| 20260510130904 | 20 | 232 | 4.8 | 12.9 | 0.00 | 0.00 | 0.00 | 84 | 1016.5 |
| 20260510130404 | 20 | 278 | 4.8 | 11.3 | 0.00 | 0.00 | 0.00 | 84 | 1016.4 |
| 20260510125904 | 19 | 277 | 3.2 | 14.5 | 0.00 | 0.00 | 0.00 | 84 | 1016.4 |
| 20260510125403 | 19 | 305 | 3.2 | 11.3 | 0.00 | 0.00 | 0.00 | 85 | 1016.4 |
| 20260510124904 | 18 | 260 | 3.2 | 11.3 | 0.00 | 0.00 | 0.00 | 85 | 1016.4 |
| 20260510124404 | 18 | 312 | 4.8 | 8.0 | 0.00 | 0.00 | 0.00 | 86 | 1016.5 |
| 20260510123904 | 18 | 284 | 3.2 | 4.8 | 0.00 | 0.00 | 0.00 | 87 | 1016.4 |
| 20260510123404 | 18 | 295 | 3.2 | 4.8 | 0.00 | 0.00 | 0.00 | 88 | 1016.4 |
| 20260510121904 | 17 | 250 | 1.6 | 3.2 | 0.00 | 0.00 | 0.00 | 90 | 1016.2 |
| 20260510121404 | 16 | 250 | 0.0 | 3.2 | 0.00 | 0.00 | 0.00 | 91 | 1016.3 |
| 20260510120904 | 16 | 254 | 1.6 | 3.2 | 0.00 | 0.00 | 0.00 | 91 | 1016.1 |
| 20260510115904 | 16 | 259 | 1.6 | 4.8 | 0.00 | 0.00 | 0.00 | 92 | 1016.0 |
| 20260510115404 | 16 | 259 | 1.6 | 4.8 | 0.00 | 0.00 | 0.00 | 92 | 1015.9 |
| 20260510114904 | 16 | 242 | 1.6 | 4.8 | 0.00 | 0.00 | 0.00 | 92 | 1015.8 |
| 20260510114404 | 15 | 223 | 1.6 | 4.8 | 0.00 | 0.00 | 0.00 | 92 | 1015.5 |
| 20260510113404 | 14 | 221 | 1.6 | 4.8 | 0.00 | 0.00 | 0.00 | 93 | 1015.3 |
| 20260510112904 | 13 | 224 | 1.6 | 4.8 | 0.00 | 0.00 | 0.00 | 92 | 1015.3 |
| 20260510112404 | 13 | 224 | 1.6 | 4.8 | 0.00 | 0.00 | 0.00 | 93 | 1015.2 |
| 20260510111904 | 12 | 225 | 0.0 | 4.8 | 0.00 | 0.00 | 0.00 | 92 | 1015.0 |
| 20260510110904 | 12 | 225 | 0.0 | 1.6 | 0.00 | 0.00 | 0.00 | 91 | 1014.8 |
| 20260510110404 | 12 | 225 | 1.6 | 1.6 | 0.00 | 0.00 | 0.00 | 91 | 1014.7 |
| 20260510105904 | 12 | 225 | 1.6 | 1.6 | 0.00 | 0.00 | 0.00 | 91 | 1014.7 |
| 20260510105404 | 12 | 225 | 1.6 | 3.2 | 0.00 | 0.00 | 0.00 | 91 | 1014.6 |
| 20260510104904 | 12 | 225 | 1.6 | 3.2 | 0.00 | 0.00 | 0.00 | 91 | 1014.6 |
| 20260510104404 | 12 | 225 | 0.0 | 1.6 | 0.00 | 0.00 | 0.00 | 91 | 1014.7 |
| 20260510103904 | 12 | 225 | 0.0 | 1.6 | 0.00 | 0.00 | 0.00 | 91 | 1014.6 |
| 20260510103404 | 12 | 225 | 0.0 | 0.0 | 0.00 | 0.00 | 0.00 | 91 | 1014.5 |
| 20260510102904 | 12 | 225 | 0.0 | 1.6 | 0.00 | 0.00 | 0.00 | 90 | 1014.3 |
| 20260510102404 | 12 | 225 | 0.0 | 0.0 | 0.00 | 0.00 | 0.00 | 90 | 1014.2 |
| 20260510101904 | 13 | 225 | 0.0 | 0.0 | 0.00 | 0.00 | 0.00 | 90 | 1014.3 |
| 20260510100904 | 13 | 225 | 0.0 | 1.6 | 0.00 | 0.00 | 0.00 | 90 | 1014.2 |
| 20260510100404 | 13 | 225 | 0.0 | 1.6 | 0.00 | 0.00 | 0.00 | 90 | 1014.1 |
| 20260510095904 | 13 | 225 | 0.0 | 0.0 | 0.00 | 0.00 | 0.00 | 90 | 1014.1 |
| 20260510095404 | 13 | 225 | 0.0 | 0.0 | 0.00 | 0.00 | 0.00 | 90 | 1014.1 |
| 20260510094904 | 13 | 225 | 0.0 | 0.0 | 0.00 | 0.00 | 0.00 | 89 | 1014.0 |
| 20260510094404 | 13 | 225 | 0.0 | 0.0 | 0.00 | 0.00 | 0.00 | 89 | 1014.0 |
| 20260510093904 | 13 | 225 | 0.0 | 0.0 | 0.00 | 0.00 | 0.00 | 89 | 1013.8 |
| 20260510093404 | 13 | 225 | 0.0 | 3.2 | 0.00 | 0.00 | 0.00 | 88 | 1013.7 |
| 20260510092904 | 14 | 225 | 0.0 | 1.6 | 0.00 | 0.00 | 0.00 | 87 | 1013.8 |
| 20260510091404 | 16 | 225 | 1.6 | 4.8 | 0.00 | 0.00 | 0.00 | 88 | 1013.8 |
| 20260510090904 | 16 | 225 | 0.0 | 8.0 | 0.00 | 0.00 | 0.00 | 88 | 1013.9 |
| 20260510090404 | 16 | 228 | 3.2 | 9.7 | 0.00 | 0.00 | 0.00 | 87 | 1013.8 |
| 20260510085904 | 16 | 229 | 0.0 | 3.2 | 0.00 | 0.00 | 0.00 | 87 | 1013.7 |
| 20260510084904 | 16 | 226 | 4.8 | 11.3 | 0.00 | 0.00 | 0.00 | 87 | 1013.5 |
| 20260510084404 | 16 | 219 | 4.8 | 11.3 | 0.00 | 0.00 | 0.00 | 87 | 1013.5 |
| 20260510083904 | 16 | 214 | 4.8 | 12.9 | 0.00 | 0.00 | 0.00 | 86 | 1013.3 |
| 20260510083404 | 16 | 201 | 6.4 | 11.3 | 0.00 | 0.00 | 0.00 | 86 | 1013.3 |
| 20260510082904 | 16 | 192 | 6.4 | 9.7 | 0.00 | 0.00 | 0.00 | 86 | 1013.2 |
| 20260510082404 | 16 | 209 | 8.0 | 12.9 | 0.00 | 0.00 | 0.00 | 86 | 1013.2 |
| 20260510081904 | 16 | 211 | 4.8 | 9.7 | 0.00 | 0.00 | 0.00 | 85 | 1013.2 |
| 20260510081403 | 16 | 200 | 4.8 | 11.3 | 0.00 | 0.00 | 0.00 | 85 | 1013.3 |
| 20260510080904 | 16 | 207 | 4.8 | 11.3 | 0.00 | 0.00 | 0.00 | 85 | 1013.2 |
| 20260510080404 | 16 | 210 | 4.8 | 9.7 | 0.00 | 0.00 | 0.00 | 84 | 1013.2 |
| 20260510075904 | 15 | 200 | 4.8 | 8.0 | 0.00 | 0.00 | 0.00 | 84 | 1013.1 |
| 20260510075404 | 15 | 223 | 4.8 | 9.7 | 0.00 | 0.00 | 0.00 | 83 | 1013.3 |
| 20260510074404 | 15 | 205 | 4.8 | 9.7 | 0.00 | 0.00 | 0.00 | 83 | 1013.3 |
| 20260510073904 | 15 | 207 | 4.8 | 9.7 | 0.00 | 0.00 | 0.00 | 84 | 1013.3 |
| 20260510073404 | 14 | 212 | 4.8 | 8.0 | 0.00 | 0.00 | 0.00 | 85 | 1013.4 |
| 20260510072904 | 13 | 207 | 4.8 | 11.3 | 0.00 | 0.00 | 0.00 | 85 | 1013.4 |
| 20260510072404 | 12 | 182 | 1.6 | 4.8 | 0.00 | 0.00 | 0.00 | 84 | 1013.5 |
| 20260510071904 | 12 | 182 | 0.0 | 1.6 | 0.00 | 0.00 | 0.00 | 84 | 1013.6 |
| 20260510071404 | 12 | 182 | 1.6 | 4.8 | 0.00 | 0.00 | 0.00 | 85 | 1013.5 |
| 20260510065904 | 12 | 24 | 0.0 | 3.2 | 0.00 | 0.00 | 0.00 | 86 | 1013.4 |
| 20260510064904 | 11 | 18 | 0.0 | 1.6 | 0.00 | 0.00 | 0.00 | 86 | 1013.3 |
| 20260510064404 | 12 | 18 | 0.0 | 1.6 | 0.00 | 0.00 | 0.00 | 86 | 1013.3 |
| 20260510063904 | 12 | 18 | 0.0 | 1.6 | 0.00 | 0.00 | 0.00 | 85 | 1013.3 |
| 20260510063404 | 12 | 18 | 1.6 | 1.6 | 0.00 | 0.00 | 0.00 | 85 | 1013.3 |
| 20260510062904 | 12 | 18 | 0.0 | 1.6 | 0.00 | 0.00 | 0.00 | 85 | 1013.2 |
| 20260510062404 | 12 | 19 | 1.6 | 3.2 | 0.00 | 0.00 | 0.00 | 85 | 1013.2 |
| 20260510061404 | 12 | 18 | 0.0 | 1.6 | 0.00 | 0.00 | 0.00 | 84 | 1013.1 |
| 20260510060904 | 12 | 19 | 1.6 | 3.2 | 0.00 | 0.00 | 0.00 | 85 | 1013.1 |
| 20260510060404 | 12 | 18 | 0.0 | 0.0 | 0.00 | 0.00 | 0.00 | 85 | 1013.1 |
| 20260510055404 | 12 | 18 | 0.0 | 0.0 | 0.00 | 0.00 | 0.00 | 85 | 1013.1 |
| 20260510054904 | 12 | 18 | 0.0 | 0.0 | 0.00 | 0.00 | 0.00 | 85 | 1013.1 |
| 20260510054404 | 12 | 18 | 0.0 | 0.0 | 0.00 | 0.00 | 0.00 | 85 | 1013.1 |
| 20260510053904 | 12 | 18 | 0.0 | 0.0 | 0.00 | 0.00 | 0.00 | 85 | 1013.0 |
| 20260510053404 | 12 | 18 | 0.0 | 0.0 | 0.00 | 0.00 | 0.00 | 85 | 1013.1 |
| 20260510052904 | 12 | 18 | 1.6 | 3.2 | 0.00 | 0.00 | 0.00 | 85 | 1013.0 |
| 20260510052405 | 12 | 18 | 1.6 | 3.2 | 0.00 | 0.00 | 0.00 | 85 | 1013.0 |
| 20260510051904 | 12 | 18 | 0.0 | 0.0 | 0.00 | 0.00 | 0.00 | 85 | 1013.1 |
| 20260510051403 | 12 | 18 | 0.0 | 0.0 | 0.00 | 0.00 | 0.00 | 85 | 1013.1 |
| 20260510050904 | 12 | 18 | 0.0 | 1.6 | 0.00 | 0.00 | 0.00 | 84 | 1013.1 |
| 20260510050403 | 12 | 18 | 0.0 | 0.0 | 0.00 | 0.00 | 0.00 | 84 | 1013.1 |
| 20260510045903 | 13 | 18 | 0.0 | 3.2 | 0.00 | 0.00 | 0.00 | 84 | 1013.1 |
| 20260510045404 | 13 | 9 | 0.0 | 3.2 | 0.00 | 0.00 | 0.00 | 83 | 1013.2 |
| 20260510044403 | 13 | 9 | 0.0 | 0.0 | 0.00 | 0.00 | 0.00 | 83 | 1013.1 |
| 20260510043904 | 13 | 9 | 0.0 | 0.0 | 0.00 | 0.00 | 0.00 | 82 | 1013.0 |
| 20260510043404 | 13 | 9 | 0.0 | 0.0 | 0.00 | 0.00 | 0.00 | 82 | 1013.0 |
| 20260510042904 | 13 | 9 | 0.0 | 0.0 | 0.00 | 0.00 | 0.00 | 82 | 1012.9 |
| 20260510042404 | 13 | 9 | 0.0 | 0.0 | 0.00 | 0.00 | 0.00 | 81 | 1013.0 |
| 20260510041903 | 13 | 9 | 0.0 | 0.0 | 0.00 | 0.00 | 0.00 | 81 | 1013.0 |
| 20260510040904 | 13 | 9 | 0.0 | 0.0 | 0.00 | 0.00 | 0.00 | 81 | 1013.0 |
| 20260510040404 | 13 | 9 | 0.0 | 0.0 | 0.00 | 0.00 | 0.00 | 80 | 1013.1 |
| 20260510035904 | 13 | 9 | 0.0 | 0.0 | 0.00 | 0.00 | 0.00 | 81 | 1013.1 |
| 20260510035404 | 13 | 9 | 0.0 | 0.0 | 0.00 | 0.00 | 0.00 | 80 | 1013.1 |
| 20260510034904 | 14 | 9 | 0.0 | 0.0 | 0.00 | 0.00 | 0.00 | 80 | 1013.0 |
| 20260510034404 | 14 | 9 | 0.0 | 0.0 | 0.00 | 0.00 | 0.00 | 80 | 1013.0 |
| 20260510033904 | 14 | 9 | 0.0 | 0.0 | 0.00 | 0.00 | 0.00 | 79 | 1013.0 |
| 20260510032403 | 15 | 9 | 0.0 | 0.0 | 0.00 | 0.00 | 0.00 | 79 | 1013.1 |
| 20260510031403 | 15 | 9 | 0.0 | 0.0 | 0.00 | 0.00 | 0.00 | 78 | 1013.1 |
| 20260510030904 | 15 | 9 | 0.0 | 0.0 | 0.00 | 0.00 | 0.00 | 77 | 1013.1 |
| 20260510030404 | 15 | 9 | 0.0 | 0.0 | 0.00 | 0.00 | 0.00 | 77 | 1013.1 |
| 20260510025904 | 15 | 9 | 0.0 | 0.0 | 0.00 | 0.00 | 0.00 | 77 | 1012.9 |
| 20260510025404 | 15 | 9 | 0.0 | 0.0 | 0.00 | 0.00 | 0.00 | 76 | 1012.9 |
| 20260510024904 | 15 | 9 | 0.0 | 0.0 | 0.00 | 0.00 | 0.00 | 76 | 1012.8 |
| 20260510024404 | 16 | 9 | 0.0 | 0.0 | 0.00 | 0.00 | 0.00 | 75 | 1012.8 |
| 20260510023404 | 16 | 9 | 0.0 | 0.0 | 0.00 | 0.00 | 0.00 | 74 | 1012.6 |
| 20260510022904 | 16 | 9 | 0.0 | 0.0 | 0.00 | 0.00 | 0.00 | 72 | 1012.6 |
| 20260510022404 | 16 | 9 | 0.0 | 0.0 | 0.00 | 0.00 | 0.00 | 72 | 1012.5 |
| 20260510021904 | 16 | 9 | 0.0 | 0.0 | 0.00 | 0.00 | 0.00 | 71 | 1012.4 |
| 20260510021404 | 16 | 9 | 0.0 | 0.0 | 0.00 | 0.00 | 0.00 | 70 | 1012.3 |
| 20260510020904 | 16 | 9 | 0.0 | 0.0 | 0.00 | 0.00 | 0.00 | 69 | 1012.2 |
| 20260510015904 | 17 | 9 | 0.0 | 0.0 | 0.00 | 0.00 | 0.00 | 68 | 1012.1 |
| 20260510014904 | 17 | 9 | 0.0 | 0.0 | 0.00 | 0.00 | 0.00 | 67 | 1012.0 |
| 20260510014404 | 17 | 9 | 0.0 | 0.0 | 0.00 | 0.00 | 0.00 | 67 | 1011.9 |
| 20260510013904 | 17 | 9 | 0.0 | 0.0 | 0.00 | 0.00 | 0.00 | 66 | 1011.8 |
| 20260510013404 | 18 | 9 | 0.0 | 0.0 | 0.00 | 0.00 | 0.00 | 66 | 1011.9 |
| 20260510012904 | 18 | 9 | 0.0 | 0.0 | 0.00 | 0.00 | 0.00 | 65 | 1011.9 |
| 20260510012404 | 18 | 9 | 0.0 | 0.0 | 0.00 | 0.00 | 0.00 | 64 | 1011.8 |
| 20260510011904 | 18 | 9 | 0.0 | 0.0 | 0.00 | 0.00 | 0.00 | 63 | 1011.7 |
| 20260510010903 | 19 | 9 | 0.0 | 1.6 | 0.00 | 0.00 | 0.00 | 60 | 1011.6 |
| 20260510010404 | 20 | 9 | 0.0 | 0.0 | 0.00 | 0.00 | 0.00 | 59 | 1011.6 |
| 20260510005404 | 20 | 9 | 0.0 | 1.6 | 0.00 | 0.00 | 0.00 | 59 | 1011.4 |
| 20260510004904 | 20 | 9 | 0.0 | 0.0 | 0.00 | 0.00 | 0.00 | 58 | 1011.5 |
| 20260510004404 | 21 | 9 | 0.0 | 0.0 | 0.00 | 0.00 | 0.00 | 57 | 1011.5 |
| 20260510003904 | 21 | 9 | 0.0 | 0.0 | 0.00 | 0.00 | 0.00 | 55 | 1011.3 |
| 20260510003403 | 22 | 9 | 0.0 | 0.0 | 0.00 | 0.00 | 0.00 | 54 | 1011.2 |
| 20260510002903 | 22 | 9 | 0.0 | 0.0 | 0.00 | 0.00 | 0.00 | 51 | 1011.3 |
| 20260510001904 | 22 | 9 | 0.0 | 1.6 | 0.00 | 0.00 | 0.00 | 49 | 1011.2 |
| 20260510001404 | 23 | 9 | 0.0 | 1.6 | 0.00 | 0.00 | 0.00 | 48 | 1011.2 |
| 20260510000904 | 23 | 9 | 0.0 | 1.6 | 0.00 | 0.00 | 0.00 | 44 | 1011.1 |
| 20260510000404 | 24 | 9 | 1.6 | 3.2 | 0.00 | 0.00 | 0.00 | 41 | 1011.0 |
| 20260509235904 | 24 | 350 | 1.6 | 3.2 | 0.00 | 0.00 | 0.00 | 38 | 1010.9 |
| 20260509235403 | 24 | 350 | 1.6 | 3.2 | 0.00 | 0.00 | 0.00 | 39 | 1010.9 |
| 20260509233904 | 25 | 350 | 1.6 | 3.2 | 0.00 | 0.00 | 0.00 | 38 | 1010.8 |
| 20260509233404 | 25 | 350 | 1.6 | 4.8 | 0.00 | 0.00 | 0.00 | 38 | 1010.8 |
| 20260509232904 | 25 | 346 | 4.8 | 4.8 | 0.00 | 0.00 | 0.00 | 39 | 1010.8 |
| 20260509232403 | 25 | 323 | 4.8 | 8.0 | 0.00 | 0.00 | 0.00 | 39 | 1010.9 |
| 20260509231904 | 25 | 359 | 4.8 | 8.0 | 0.00 | 0.00 | 0.00 | 38 | 1011.0 |
| 20260509231404 | 25 | 318 | 4.8 | 4.8 | 0.00 | 0.00 | 0.00 | 40 | 1010.9 |
| 20260509230904 | 25 | 314 | 3.2 | 4.8 | 0.00 | 0.00 | 0.00 | 40 | 1010.8 |
| 20260509230404 | 25 | 293 | 3.2 | 4.8 | 0.00 | 0.00 | 0.00 | 39 | 1010.7 |
| 20260509225903 | 25 | 341 | 4.8 | 8.0 | 0.00 | 0.00 | 0.00 | 39 | 1010.6 |
| 20260509225403 | 26 | 359 | 4.8 | 4.8 | 0.00 | 0.00 | 0.00 | 39 | 1010.8 |
| 20260509224903 | 26 | 348 | 4.8 | 4.8 | 0.00 | 0.00 | 0.00 | 40 | 1010.8 |
| 20260509224404 | 26 | 352 | 4.8 | 8.0 | 0.00 | 0.00 | 0.00 | 39 | 1010.7 |
| 20260509223904 | 26 | 305 | 4.8 | 11.3 | 0.00 | 0.00 | 0.00 | 39 | 1010.6 |
| 20260509223403 | 26 | 310 | 4.8 | 8.0 | 0.00 | 0.00 | 0.00 | 38 | 1010.6 |
| 20260509222904 | 26 | 298 | 3.2 | 8.0 | 0.00 | 0.00 | 0.00 | 39 | 1010.8 |
| 20260509222404 | 26 | 299 | 4.8 | 12.9 | 0.00 | 0.00 | 0.00 | 39 | 1010.8 |
| 20260509221904 | 26 | 6 | 1.6 | 4.8 | 0.00 | 0.00 | 0.00 | 40 | 1010.7 |
| 20260509221404 | 26 | 5 | 3.2 | 4.8 | 0.00 | 0.00 | 0.00 | 39 | 1010.6 |
| 20260509220904 | 26 | 321 | 4.8 | 12.9 | 0.00 | 0.00 | 0.00 | 39 | 1010.8 |
| 20260509220403 | 26 | 298 | 4.8 | 12.9 | 0.00 | 0.00 | 0.00 | 38 | 1010.8 |
| 20260509215903 | 26 | 337 | 4.8 | 11.3 | 0.00 | 0.00 | 0.00 | 41 | 1010.6 |
| 20260509215404 | 26 | 268 | 4.8 | 11.3 | 0.00 | 0.00 | 0.00 | 39 | 1010.7 |
| 20260509214904 | 26 | 295 | 3.2 | 12.9 | 0.00 | 0.00 | 0.00 | 40 | 1010.8 |
| 20260509214403 | 26 | 293 | 8.0 | 12.9 | 0.00 | 0.00 | 0.00 | 40 | 1010.8 |
| 20260509213904 | 26 | 292 | 3.2 | 8.0 | 0.00 | 0.00 | 0.00 | 41 | 1010.7 |
| 20260509213404 | 26 | 300 | 4.8 | 9.7 | 0.00 | 0.00 | 0.00 | 41 | 1010.8 |
| 20260509212904 | 26 | 305 | 4.8 | 8.0 | 0.00 | 0.00 | 0.00 | 41 | 1010.9 |
| 20260509212404 | 26 | 253 | 1.6 | 4.8 | 0.00 | 0.00 | 0.00 | 41 | 1010.8 |
| 20260509211904 | 26 | 285 | 4.8 | 9.7 | 0.00 | 0.00 | 0.00 | 42 | 1010.8 |
| 20260509211404 | 26 | 88 | 0.0 | 3.2 | 0.00 | 0.00 | 0.00 | 43 | 1010.8 |
| 20260509210403 | 26 | 87 | 4.8 | 9.7 | 0.00 | 0.00 | 0.00 | 43 | 1010.6 |
| 20260509205905 | 26 | 96 | 3.2 | 4.8 | 0.00 | 0.00 | 0.00 | 43 | 1010.8 |
| 20260509205404 | 26 | 101 | 3.2 | 4.8 | 0.00 | 0.00 | 0.00 | 43 | 1011.0 |
| 20260509204904 | 26 | 165 | 6.4 | 11.3 | 0.00 | 0.00 | 0.00 | 42 | 1010.9 |
| 20260509204404 | 26 | 192 | 4.8 | 9.7 | 0.00 | 0.00 | 0.00 | 43 | 1010.6 |
| 20260509203903 | 26 | 189 | 3.2 | 8.0 | 0.00 | 0.00 | 0.00 | 43 | 1010.7 |
| 20260509203404 | 26 | 91 | 3.2 | 9.7 | 0.00 | 0.00 | 0.00 | 42 | 1010.8 |
| 20260509202904 | 26 | 91 | 3.2 | 9.7 | 0.00 | 0.00 | 0.00 | 44 | 1010.8 |
| 20260509202403 | 26 | 103 | 4.8 | 12.9 | 0.00 | 0.00 | 0.00 | 44 | 1010.8 |
| 20260509201903 | 26 | 79 | 6.4 | 12.9 | 0.00 | 0.00 | 0.00 | 45 | 1010.8 |
| 20260509200905 | 26 | 312 | 8.0 | 12.9 | 0.00 | 0.00 | 0.00 | 45 | 1011.0 |
| 20260509200404 | 26 | 344 | 4.8 | 12.9 | 0.00 | 0.00 | 0.00 | 45 | 1010.9 |
| 20260509195905 | 26 | 287 | 4.8 | 12.9 | 0.00 | 0.00 | 0.00 | 43 | 1010.9 |
| 20260509194905 | 26 | 286 | 4.8 | 12.9 | 0.00 | 0.00 | 0.00 | 45 | 1010.9 |
| 20260509193904 | 25 | 63 | 3.2 | 4.8 | 0.00 | 0.00 | 0.00 | 46 | 1011.0 |
| 20260509193404 | 26 | 296 | 3.2 | 9.7 | 0.00 | 0.00 | 0.00 | 48 | 1011.1 |
| 20260509192904 | 25 | 355 | 3.2 | 12.9 | 0.00 | 0.00 | 0.00 | 47 | 1011.1 |
| 20260509192405 | 25 | 348 | 3.2 | 12.9 | 0.00 | 0.00 | 0.00 | 47 | 1011.1 |
| 20260509191404 | 25 | 115 | 8.0 | 11.3 | 0.00 | 0.00 | 0.00 | 47 | 1011.2 |
| 20260509190905 | 25 | 63 | 4.8 | 12.9 | 0.00 | 0.00 | 0.00 | 47 | 1011.2 |
| 20260509190405 | 25 | 2 | 8.0 | 14.5 | 0.00 | 0.00 | 0.00 | 45 | 1011.2 |
| 20260509185905 | 25 | 346 | 4.8 | 12.9 | 0.00 | 0.00 | 0.00 | 46 | 1011.2 |
| 20260509185405 | 25 | 356 | 3.2 | 4.8 | 0.00 | 0.00 | 0.00 | 52 | 1011.3 |
| 20260509184905 | 25 | 0 | 3.2 | 4.8 | 0.00 | 0.00 | 0.00 | 48 | 1011.4 |
| 20260509183904 | 25 | 296 | 8.0 | 14.5 | 0.00 | 0.00 | 0.00 | 48 | 1011.5 |
| 20260509183405 | 24 | 48 | 3.2 | 4.8 | 0.00 | 0.00 | 0.00 | 51 | 1011.5 |
| 20260509182905 | 25 | 322 | 8.0 | 14.5 | 0.00 | 0.00 | 0.00 | 49 | 1011.5 |
| 20260509182404 | 25 | 345 | 4.8 | 12.9 | 0.00 | 0.00 | 0.00 | 49 | 1011.5 |
| 20260509181905 | 24 | 218 | 4.8 | 14.5 | 0.00 | 0.00 | 0.00 | 51 | 1011.5 |
| 20260509181405 | 25 | 292 | 6.4 | 14.5 | 0.00 | 0.00 | 0.00 | 52 | 1011.5 |
| 20260509180905 | 25 | 271 | 6.4 | 11.3 | 0.00 | 0.00 | 0.00 | 54 | 1011.5 |
| 20260509180405 | 24 | 186 | 6.4 | 11.3 | 0.00 | 0.00 | 0.00 | 54 | 1011.5 |
| 20260509175905 | 24 | 203 | 4.8 | 12.9 | 0.00 | 0.00 | 0.00 | 57 | 1011.4 |
| 20260509175405 | 24 | 298 | 4.8 | 19.3 | 0.00 | 0.00 | 0.00 | 54 | 1011.4 |
| 20260509174905 | 24 | 207 | 4.8 | 12.9 | 0.00 | 0.00 | 0.00 | 56 | 1011.4 |
| 20260509173905 | 23 | 193 | 3.2 | 4.8 | 0.00 | 0.00 | 0.00 | 57 | 1011.3 |
| 20260509173405 | 23 | 324 | 1.6 | 4.8 | 0.00 | 0.00 | 0.00 | 55 | 1011.4 |
| 20260509172905 | 23 | 285 | 4.8 | 12.9 | 0.00 | 0.00 | 0.00 | 56 | 1011.5 |
| 20260509172405 | 24 | 313 | 8.0 | 14.5 | 0.00 | 0.00 | 0.00 | 56 | 1011.5 |
| 20260509171904 | 23 | 315 | 8.0 | 12.9 | 0.00 | 0.00 | 0.00 | 58 | 1011.5 |
| 20260509171404 | 23 | 306 | 6.4 | 14.5 | 0.00 | 0.00 | 0.00 | 58 | 1011.7 |
| 20260509170905 | 23 | 250 | 8.0 | 14.5 | 0.00 | 0.00 | 0.00 | 59 | 1011.5 |
| 20260509170405 | 23 | 297 | 0.0 | 8.0 | 0.00 | 0.00 | 0.00 | 58 | 1011.6 |
| 20260509165905 | 23 | 25 | 3.2 | 4.8 | 0.00 | 0.00 | 0.00 | 60 | 1011.6 |
| 20260509164905 | 23 | 291 | 4.8 | 11.3 | 0.00 | 0.00 | 0.00 | 62 | 1011.5 |